Flippin, AR

9:16 PM CDT on April 24, 2017 (GMT -0500)
Marion County Regional

Weather History for KFLP - November, 2012

Change the Weather History Date:

Tuesday, November 6, 2012

  Actual Average Record
Temperature  
Mean Temperature 52 °F -  
Max Temperature 59 °F 61 °F 82 °F (1999)
Min Temperature 42 °F 41 °F 26 °F (2010)
Degree Days  
Heating Degree Days 14    
Growing Degree Days 2 (Base 50)    
Moisture  
Dew Point 37 °F    
Average Humidity 64    
Maximum Humidity 76    
Minimum Humidity 45    
Precipitation  
Precipitation 0.00 in - - ()
Sea Level Pressure  
Sea Level Pressure 30.03 in    
Wind  
Wind Speed 6 mph (WNW)    
Max Wind Speed 13 mph    
Max Gust Speed -    
Visibility 10 miles    
Events      
Averages and records for this station are not official NWS values.
T = Trace of Precipitation, MM = Missing Value Source: NWS Daily Summary

Daily Weather History Graph

Daily Weather History Graph

Search for Another Location

Airport or City:

Trip Planner

Search our weather history database for the weather conditions in past years. The results will help you decide how hot, cold, wet, or windy it might be!

Date:

Astronomy

Nov. 06, 2012 Rise Set
Actual Time 6:38 AM CST 5:08 PM CST
Civil Twilight 6:11 AM CST 5:35 PM CST
Nautical Twilight 5:41 AM CST 6:06 PM CST
Astronomical Twilight 5:11 AM CST 6:36 PM CST
Moon 11:46 PM CST (11/6) 12:32 PM CST (11/6)
Length of Visible Light 11h 23m
Length of Day
10h 29m
Waning Gibbous, 53% of the Moon is Illuminated
Nov 6
Waning Gibbous
Nov 6
Last Quarter
Nov 13
New
Nov 20
First Quarter
Nov 28
Full

Hourly Weather History & Observations

Time (CST) Temp. Windchill Dew Point Humidity Pressure Visibility Wind Dir Wind Speed Gust Speed Precip Events Conditions
12:15 AM 46.4 °F 42.9 °F 39.2 °F 76% 30.04 in 10.0 mi NNW 6.9 mph - N/A   Overcast
12:35 AM 46.4 °F 42.9 °F 39.2 °F 76% 30.05 in 10.0 mi NW 6.9 mph - N/A   Overcast
12:55 AM 46.4 °F 45.2 °F 39.2 °F 76% 30.04 in 10.0 mi NW 3.5 mph - N/A   Overcast
1:15 AM 46.4 °F 44.3 °F 39.2 °F 76% 30.04 in 10.0 mi NW 4.6 mph - N/A   Overcast
1:35 AM 46.4 °F 43.5 °F 39.2 °F 76% 30.04 in 10.0 mi NW 5.8 mph - N/A   Overcast
2:15 AM 46.4 °F 44.3 °F 39.2 °F 76% 30.04 in 10.0 mi NW 4.6 mph - N/A   Overcast
2:55 AM 46.4 °F 44.3 °F 39.2 °F 76% 30.04 in 5.0 mi WNW 4.6 mph - N/A   Overcast
3:15 AM 46.4 °F 44.3 °F 39.2 °F 76% 30.04 in 5.0 mi WNW 4.6 mph - N/A   Overcast
3:35 AM 46.4 °F 43.5 °F 39.2 °F 76% 30.05 in 10.0 mi NW 5.8 mph - N/A   Overcast
3:55 AM 46.4 °F 42.9 °F 39.2 °F 76% 30.05 in 10.0 mi NNW 6.9 mph - N/A   Overcast
4:35 AM 46.4 °F 45.2 °F 39.2 °F 76% 30.05 in 10.0 mi NW 3.5 mph - N/A   Overcast
5:55 AM 46.4 °F 43.5 °F 39.2 °F 76% 30.05 in 10.0 mi WNW 5.8 mph - N/A   Overcast
6:35 AM 46.4 °F 43.5 °F 37.4 °F 71% 30.05 in 10.0 mi West 5.8 mph - N/A   Overcast
7:35 AM 46.4 °F 41.9 °F 37.4 °F 71% 30.07 in 10.0 mi WNW 9.2 mph - N/A   Overcast
7:55 AM 46.4 °F 44.3 °F 37.4 °F 71% 30.09 in 10.0 mi West 4.6 mph - N/A   Overcast
8:15 AM 46.4 °F 43.5 °F 37.4 °F 71% 30.10 in 10.0 mi WNW 5.8 mph - N/A   Overcast
9:15 AM 46.4 °F 43.5 °F 37.4 °F 71% 30.08 in 10.0 mi West 5.8 mph - N/A   Overcast
10:15 AM 48.2 °F - 37.4 °F 66% 30.08 in 10.0 mi West 6.9 mph - N/A   Overcast
10:35 AM 48.2 °F - 37.4 °F 66% 30.07 in 10.0 mi West 6.9 mph - N/A   Overcast
10:55 AM 48.2 °F - 37.4 °F 66% 30.06 in 10.0 mi WSW 9.2 mph - N/A   Overcast
11:15 AM 48.2 °F - 37.4 °F 66% 30.07 in 10.0 mi West 12.7 mph - N/A   Overcast
11:35 AM 48.2 °F - 37.4 °F 66% 30.07 in 10.0 mi West 8.1 mph - N/A   Overcast
12:16 PM 50.0 °F - 37.4 °F 62% 30.04 in 10.0 mi SW 4.6 mph - N/A   Overcast
12:35 PM 51.8 °F - 37.4 °F 58% 30.02 in 10.0 mi South 4.6 mph - N/A   Mostly Cloudy
12:55 PM 53.6 °F - 37.4 °F 54% 30.02 in 10.0 mi SW 6.9 mph - N/A   Scattered Clouds
1:55 PM 55.4 °F - 37.4 °F 51% 29.99 in 10.0 mi SW 4.6 mph - N/A   Overcast
2:35 PM 57.2 °F - 37.4 °F 48% 29.97 in 10.0 mi West 5.8 mph - N/A   Clear
2:55 PM 59.0 °F - 37.4 °F 45% 29.97 in 10.0 mi WNW 6.9 mph - N/A   Partly Cloudy
3:15 PM 59.0 °F - 37.4 °F 45% 29.97 in 10.0 mi North 8.1 mph - N/A   Partly Cloudy
3:55 PM 57.2 °F - 37.4 °F 48% 29.98 in 10.0 mi NNW 4.6 mph - N/A   Clear
4:36 PM 57.2 °F - 37.4 °F 48% 29.98 in 10.0 mi Calm Calm - N/A   Clear
4:55 PM 55.4 °F - 39.2 °F 54% 29.98 in 10.0 mi WNW 4.6 mph - N/A   Clear
5:15 PM 53.6 °F - 37.4 °F 54% 29.99 in 10.0 mi WNW 5.8 mph - N/A   Clear
6:15 PM 51.8 °F - 37.4 °F 58% 30.00 in 10.0 mi WNW 4.6 mph - N/A   Clear
6:35 PM 50.0 °F - 37.4 °F 62% 30.01 in 10.0 mi WNW 5.8 mph - N/A   Clear
6:56 PM 48.2 °F - 35.6 °F 62% 30.01 in 10.0 mi West 5.8 mph - N/A   Clear
7:35 PM 50.0 °F - 35.6 °F 58% 30.01 in 10.0 mi West 5.8 mph - N/A   Clear
7:55 PM 50.0 °F - 35.6 °F 58% 30.01 in 10.0 mi West 5.8 mph - N/A   Clear
8:15 PM 50.0 °F - 35.6 °F 58% 30.02 in 10.0 mi West 5.8 mph - N/A   Clear
8:55 PM 50.0 °F - 35.6 °F 58% 30.03 in 10.0 mi WNW 6.9 mph - N/A   Clear
9:55 PM 51.8 °F - 33.8 °F 50% 30.04 in 10.0 mi WNW 4.6 mph - N/A   Clear
10:55 PM 48.2 °F - 33.8 °F 58% 30.03 in 10.0 mi Calm Calm - N/A   Clear
11:15 PM 46.4 °F - 33.8 °F 62% 30.03 in 10.0 mi Calm Calm - N/A   Clear
11:35 PM 44.6 °F - 33.8 °F 66% 30.03 in 10.0 mi Calm Calm - N/A   Clear
11:55 PM 42.8 °F - 32.0 °F 66% 30.03 in 10.0 mi Calm Calm - N/A   Clear